{"data":{"norad_id":66093,"epoch":"2026-09-20T05:41:24.758304Z","epoch_age_seconds":125718,"freshness":"FRESH","line1":"1 66093U 25236H   26263.23709211  .00017985  00000+0  54195-3 0  9992","line2":"2 66093  53.1601 278.5931 0000744  71.6571 288.4512 15.34410745 52752","mean_motion":15.34410745,"eccentricity":7.44e-5,"inclination_deg":53.1601,"raan_deg":278.5931,"arg_perigee_deg":71.6571,"mean_anomaly_deg":288.4512,"bstar":0.00054195,"rev_number":5275,"period_min":93.847100894748,"perigee_km":462.16234785125,"apogee_km":463.18026012688,"semimajor_km":6840.8083039891,"source":"CELESTRAK","updated_at":"2026-09-21T09:00:35.801571Z"}}